Meteopurmerend
purmerend
Purmerend - Baaienwijk



My webcam  My webcam


Onweer radar Meer informatie blitzortung!


Regen radar Meer informatie rain snow radar


Bezoek onze andere website:

CandyAppleRed WebdesignWebdesign Purmerend Candy Apple Red

MeteopurmerendBlog

Template documentation
and downloads



We konden geen weer-waarchuwingen ophalen. Ga rechtstreeks naar de Meteoalarm site : www.meteoalarm.eu en controleer daar .

15 daagse weersverwachting Edinburgh (GB)

  • Overzicht
  • Per uur
  • 15 dagen
  • Extra
  • Vergelijk
  • Kaarten
  • Dagkaart
  • Meer »
  • Info
  • Statistieken
  • Directe link
    Temp 6h Neerslag Wind  
 05:15     21:25    Daglengte: 16:10 Vandaag
13:00
18°
 
6
19:00
17°
1.1 mm
6
 05:17     21:23    Daglengte: 16:06 Morgen
01:00
15°
 
5
07:00
14°
 
4
13:00
16°
 
3
19:00
18°
 
3
 05:18     21:21    Daglengte: 16:03 Zaterdag 31 Jul
01:00
15°
5.2 mm
3
07:00
14°
8.7 mm
4
13:00
14°
5.5 mm
2
19:00
16°
 
4
 05:20     21:19    Daglengte: 15:59 Zondag 01 Aug
01:00
14°
4.0 mm
2
07:00
12°
 
3
Locatie info
Region: Scotland
Latitude: 55.9543°N
Longitude: -3.2019°E
66 masl
Postcode: EH2 3
Temp/Neerslag /Baro Onweer/Dauwpunt
    Temp Baro 1h Neerslag Dauwpunt Wind UV Bewolking  
 05:15     21:25    Daglengte: 16:10 Vandaag
11:00
16°
1001.3 hPa
49%
13.2°
6
Windvlaag: 3.6 m/s
77%
12:00
17°
1001.5 hPa
73%
13.2°
6
Windvlaag: 3.9 m/s
50%
13:00
18°
1001.6 hPa
80%
13.5°
6
Windvlaag: 3.9 m/s
40%
14:00
18°
1001.8 hPa
82%
14.2°
7
Windvlaag: 4.2 m/s
23%
15:00
18°
1002.2 hPa
82%
14.6°
7
Windvlaag: 4 m/s
52%
16:00
18°
1002.4 hPa
82%
15.0°
6
Windvlaag: 3.5 m/s
57%
17:00
18°
1002.8 hPa 0.5 mm
82%
15.0°
6
Windvlaag: 2.2 m/s
57%
18:00
18°
1003.1 hPa 0.6 mm
82%
14.4°
6
Windvlaag: 1.4 m/s
81%
19:00
17°
1003.4 hPa
80%
13.9°
6
Windvlaag: 3 m/s
32%
20:00
17°
1003.5 hPa
77%
13.6°
6
Windvlaag: 3.3 m/s
80%
21:00
16°
1003.9 hPa
31%
13.1°
6
Windvlaag: 3.1 m/s
28%
22:00
16°
1004.4 hPa
31%
12.6°
5
Windvlaag: 2.4 m/s
57%
23:00
15°
1004.5 hPa
31%
12.0°
5
Windvlaag: 3 m/s
60%
 05:17     21:23    Daglengte: 16:06 Morgen
00:00
15°
1004.5 hPa
28%
11.9°
5
Windvlaag: 3.4 m/s
29%
01:00
15°
1004.4 hPa
70%
11.8°
5
Windvlaag: 3.4 m/s
63%
02:00
15°
1004.4 hPa
69%
11.7°
5
Windvlaag: 3.3 m/s
72%
03:00
14°
1004.4 hPa
75%
11.7°
5
Windvlaag: 3.3 m/s
86%
04:00
14°
1004.2 hPa
81%
11.6°
5
Windvlaag: 3.1 m/s
85%
05:00
14°
1004.2 hPa
78%
11.5°
4
Windvlaag: 2.4 m/s
83%
06:00
14°
1004.1 hPa
76%
11.7°
4
Windvlaag: 2.7 m/s
75%
07:00
14°
1004.3 hPa
71%
11.8°
4
Windvlaag: 2.7 m/s
74%
08:00
14°
1004.4 hPa
69%
12.0°
4
Windvlaag: 2.6 m/s
67%
09:00
14°
1004.5 hPa
72%
12.4°
3
Windvlaag: 2.1 m/s
71%
10:00
15°
1004.6 hPa
68%
12.3°
3
Windvlaag: 1.4 m/s
78%
11:00
15°
1004.8 hPa
72%
12.2°
3
Windvlaag: 1.5 m/s
78%
12:00
16°
1004.8 hPa
74%
12.5°
3
Windvlaag: 1.2 m/s
78%
13:00
16°
1004.7 hPa
79%
12.3°
3
Windvlaag: 1.1 m/s
78%
14:00
16°
1004.6 hPa
72%
11.9°
3
Windvlaag: 0.7 m/s
76%
15:00
16°
1004.6 hPa
72%
11.9°
2
Windvlaag: 0.5 m/s
69%
16:00
17°
1004.4 hPa
69%
11.4°
3
Windvlaag: 0.9 m/s
40%
17:00
18°
1004.3 hPa
29%
12.0°
3
Windvlaag: 1.1 m/s
19%
18:00
18°
1004.2 hPa
28%
12.4°
3
Windvlaag: 1.5 m/s
40%
19:00
18°
1004.2 hPa
33%
12.8°
3
Windvlaag: 1.7 m/s
31%
20:00
18°
1004.2 hPa
79%
12.9°
3
Windvlaag: 1.9 m/s
68%
21:00
17°
1004.6 hPa 0.9 mm
73%
12.8°
3
Windvlaag: 1.4 m/s
69%
22:00
16°
1004.8 hPa 0.9 mm
80%
12.7°
5
Windvlaag: -3 m/s
81%
23:00
16°
1005.1 hPa 1.0 mm
80%
12.4°
4
Windvlaag: -3.7 m/s
66%
 05:18     21:21    Daglengte: 16:03 Zaterdag 31 Jul
00:00
15°
1005.3 hPa 1.2 mm
80%
12.5°
3
Windvlaag: -1.9 m/s
61%
01:00
15°
1005.4 hPa 1.2 mm
80%
12.5°
3
Windvlaag: 0.4 m/s
62%
02:00
15°
1005.3 hPa 1.1 mm
82%
12.6°
3
Windvlaag: 1.4 m/s
79%
03:00
15°
1005.2 hPa 1.2 mm
82%
12.7°
3
Windvlaag: 1.8 m/s
86%
04:00
14°
1004.6 hPa 1.4 mm
99%
13.5°
2
Windvlaag: 2 m/s
100%
05:00
14°
1004.7 hPa 1.3 mm
91%
13.3°
2
Windvlaag: 2 m/s
99%
06:00
14°
1005.1 hPa 1.9 mm
94%
13.4°
2
Windvlaag: 1.7 m/s
100%
07:00
14°
1005.5 hPa 1.9 mm
94%
12.8°
4
Windvlaag: 1.2 m/s
100%
08:00
13°
1005.9 hPa 1.8 mm
42%
12.3°
4
Windvlaag: 1.1 m/s
99%
09:00
13°
1006.2 hPa 1.8 mm
35%
11.8°
4
Windvlaag: 1.3 m/s
100%
10:00
13°
1006.4 hPa 1.8 mm
24%
11.2°
3
Windvlaag: 2.3 m/s
100%
11:00
13°
1006.5 hPa
31%
10.8°
3
Windvlaag: 2.4 m/s
99%
12:00
14°
1006.7 hPa
31%
10.4°
3
Windvlaag: 2.3 m/s
98%
13:00
14°
1006.6 hPa
29%
9.8°
2
Windvlaag: 2 m/s
84%
14:00
15°
1006.5 hPa
27%
10.0°
2
Windvlaag: 2 m/s
61%
15:00
15°
1006.4 hPa
25%
10.1°
2
Windvlaag: 2.3 m/s
78%
16:00
16°
1006.1 hPa
72%
10.7°
3
Windvlaag: 0.2 m/s
78%
17:00
16°
1006.0 hPa
87%
11.0°
3
Windvlaag: 0.2 m/s
69%
18:00
16°
1005.9 hPa
85%
11.0°
4
Windvlaag: 0.8 m/s
76%
19:00
16°
1005.9 hPa
22%
11.0°
4
Windvlaag: 0.6 m/s
90%
20:00
15°
1006.4 hPa
21%
10.8°
6
Windvlaag: -0.5 m/s
84%
21:00
15°
1006.9 hPa
23%
10.0°
5
Windvlaag: -0.4 m/s
37%
22:00
14°
1007.5 hPa
27%
10.3°
4
Windvlaag: 1.2 m/s
82%
23:00
14°
1008.2 hPa 2.0 mm
25%
10.7°
4
Windvlaag: -2.9 m/s
96%
 05:20     21:19    Daglengte: 15:59 Zondag 01 Aug
00:00
14°
1008.5 hPa 2.0 mm
34%
10.7°
2
Windvlaag: -1.7 m/s
100%
01:00
14°
1008.5 hPa
82%
11.1°
2
Windvlaag: 0.8 m/s
97%
02:00
13°
1009.0 hPa
95%
10.1°
3
Windvlaag: 6.3 m/s
82%
03:00
13°
1009.0 hPa
52%
9.1°
3
Windvlaag: 5.9 m/s
90%
04:00
13°
1009.2 hPa
45%
9.3°
3
Windvlaag: 5.8 m/s
89%
05:00
13°
1009.4 hPa
85%
9.2°
3
Windvlaag: 5.8 m/s
96%
06:00
12°
1009.6 hPa
87%
9.5°
3
Windvlaag: 5.4 m/s
86%
07:00
12°
1010.1 hPa
42%
9.3°
3
Windvlaag: 6.2 m/s
95%
08:00
12°
1009.7 hPa 5.6 mm
100%
8.2°
3
Windvlaag: 6.1 m/s
100%
09:00
13°
1009.9 hPa 5.6 mm
100%
7.1°
3
Windvlaag: 4.7 m/s
93%
10:00
14°
1010.1 hPa 5.6 mm
100%
6.5°
3
Windvlaag: 4.1 m/s
54%
Temp/Neerslag /Baro Onweer/Dauwpunt
    Temp Baro Neerslag Dauwpunt Wind Bewolking  
 05:15     21:25    Daglengte: 16:10 Vandaag
13:00
18°
1001.6 hPa   13.5°
6
40%
16:00
18°
1002.4 hPa   15.0°
6
57%
19:00
17°
1003.4 hPa 1.1 mm 13.9°
6
32%
22:00
16°
1004.4 hPa   12.6°
5
57%
 05:17     21:23    Daglengte: 16:06 Morgen
01:00
15°
1004.4 hPa   11.8°
5
63%
04:00
14°
1004.2 hPa   11.6°
5
85%
07:00
14°
1004.3 hPa   11.8°
4
74%
10:00
15°
1004.6 hPa   12.3°
3
78%
13:00
16°
1004.7 hPa   12.3°
3
78%
16:00
17°
1004.4 hPa   11.4°
3
40%
19:00
18°
1004.2 hPa   12.8°
3
31%
22:00
16°
1004.8 hPa 1.8 mm 12.7°
5
81%
 05:18     21:21    Daglengte: 16:03 Zaterdag 31 Jul
01:00
15°
1005.4 hPa 3.4 mm 12.5°
3
62%
04:00
14°
1004.6 hPa 3.7 mm 13.5°
2
100%
07:00
14°
1005.5 hPa 5.0 mm 12.8°
4
100%
10:00
13°
1006.4 hPa 5.5 mm 11.2°
3
100%
13:00
14°
1006.6 hPa   9.8°
2
84%
16:00
16°
1006.1 hPa   10.7°
3
78%
19:00
16°
1005.9 hPa   11.0°
4
90%
22:00
14°
1007.5 hPa   10.3°
4
82%
 05:20     21:19    Daglengte: 15:59 Zondag 01 Aug
01:00
14°
1008.5 hPa 4.0 mm 11.1°
2
97%
04:00
13°
1009.2 hPa   9.3°
3
89%
07:00
12°
1010.1 hPa   9.3°
3
95%
10:00
14°
1010.1 hPa 16.8 mm 6.5°
3
54%
13:00
14°
1011.0 hPa 16.8 mm 8.0°
3
100%
16:00
15°
1013.5 hPa 8.7 mm 7.0°
3
1%
19:00
15°
1014.2 hPa 8.7 mm 7.2°
3
1%
22:00
12°
1015.4 hPa 8.7 mm 7.0°
1
1%
 05:22     21:17    Daglengte: 15:55 Maandag 02 Aug
01:00
11°
1016.0 hPa 8.7 mm 7.2°
1
1%
04:00
10°
Voelt als: 9.6°
1016.2 hPa 8.7 mm 7.0°
1
0%
07:00
11°
1016.3 hPa 8.7 mm 7.4°
1
0%
10:00
15°
1016.2 hPa 8.7 mm 8.3°
1
0%
13:00
17°
1015.9 hPa 8.8 mm 7.8°
2
0%
16:00
16°
1015.5 hPa 8.8 mm 8.9°
3
1%
19:00
17°
1015.1 hPa 8.8 mm 9.2°
1
1%
22:00
13°
1015.7 hPa 8.8 mm 9.2°
1
0%
 05:24     21:15    Daglengte: 15:51 Dinsdag 03 Aug
01:00
11°
1016.1 hPa 8.8 mm 8.1°
3
0%
04:00
10°
Voelt als: 8.5°
1015.6 hPa 8.8 mm 7.3°
3
0%
07:00
11°
1015.8 hPa 8.8 mm 7.8°
3
0%
10:00
15°
1015.1 hPa 8.8 mm 8.2°
4
1%
13:00
19°
1014.0 hPa 8.8 mm 6.4°
4
1%
16:00
20°
1013.3 hPa 8.8 mm 5.5°
4
1%
19:00
18°
1013.4 hPa 8.9 mm 7.1°
3
1%
22:00
14°
1014.1 hPa 8.9 mm 8.3°
3
1%
 05:26     21:13    Daglengte: 15:47 Woensdag 04 Aug
01:00
12°
1014.1 hPa 8.9 mm 8.2°
3
1%
04:00
12°
1013.4 hPa 9.1 mm 9.8°
2
1%
07:00
13°
1013.4 hPa 9.6 mm 11.5°
2
1%
10:00
15°
1013.4 hPa 9.7 mm 12.4°
4
1%
13:00
19°
1012.9 hPa 9.8 mm 11.2°
4
1%
16:00
19°
1012.7 hPa 10.4 mm 11.0°
4
1%
19:00
19°
1012.3 hPa 10.7 mm 11.2°
4
1%
22:00
15°
1013.5 hPa 10.8 mm 11.8°
3
1%
 05:28     21:11    Daglengte: 15:43 Donderdag 05 Aug
01:00
13°
1013.7 hPa 10.8 mm 10.8°
3
1%
04:00
12°
1013.1 hPa 10.8 mm 10.4°
3
1%
07:00
13°
1013.1 hPa 10.8 mm 10.4°
2
1%
10:00
17°
1012.7 hPa   9.1°
1
1%
13:00
18°
1011.9 hPa 22.2 mm 9.3°
0
1%
19:00
17°
1010.4 hPa 25.3 mm 11.9°
1
1%
 05:30     21:09    Daglengte: 15:39 Vrijdag 06 Aug
01:00
14°
1010.3 hPa 26.8 mm 11.1°
2
1%
07:00
13°
1009.4 hPa 26.9 mm 10.3°
2
1%
13:00
19°
1007.5 hPa 27.2 mm 10.8°
2
1%
19:00
17°
1005.7 hPa 31.4 mm 13.9°
1
1%
 05:32     21:06    Daglengte: 15:34 Zaterdag 07 Aug
01:00
14°
1004.6 hPa 33.1 mm 11.7°
1
1%
07:00
14°
1002.1 hPa 34.3 mm 12.7°
2
1%
13:00
16°
1001.5 hPa 35.8 mm 13.6°
3
1%
19:00
14°
1000.7 hPa 42.1 mm 13.1°
1
1%
 05:34     21:04    Daglengte: 15:30 Zondag 08 Aug
01:00
13°
1000.6 hPa 43.4 mm 12.6°
3
1%
07:00
12°
1004.9 hPa 0.7 mm 11.1°
2
86%
13:00
16°
1005.9 hPa 0.2 mm 12.5°
3
80%
19:00
16°
1006.7 hPa 1.7 mm 12.7°
2
67%
 05:35     21:02    Daglengte: 15:27 Maandag 09 Aug
01:00
12°
1008.4 hPa 0.7 mm 10.7°
2
60%
07:00
12°
1009.1 hPa 0.5 mm 10.7°
3
63%
13:00
17°
1010.7 hPa 0.7 mm 12.4°
4
70%
19:00
16°
1011.0 hPa 1.5 mm 12.8°
3
74%
 05:37     21:00    Daglengte: 15:23 Dinsdag 10 Aug
01:00
12°
1012.2 hPa 0.6 mm 11.0°
3
58%
07:00
12°
1012.0 hPa 0.5 mm 11.2°
3
60%
13:00
17°
1012.5 hPa 0.5 mm 12.9°
4
76%
19:00
16°
1012.0 hPa 1.4 mm 13.2°
3
76%
 05:39     20:58    Daglengte: 15:19 Woensdag 11 Aug
01:00
13°
1012.5 hPa 0.8 mm 11.7°
2
71%
07:00
13°
1012.1 hPa 0.8 mm 11.7°
3
70%
13:00
17°
1013.0 hPa 0.8 mm 12.7°
3
71%
19:00
16°
1013.2 hPa 1.5 mm 12.7°
2
71%
 05:41     20:55    Daglengte: 15:14 Donderdag 12 Aug
01:00
12°
1014.4 hPa 0.5 mm 10.9°
2
60%
07:00
12°
1014.0 hPa 0.7 mm 10.9°
2
63%
13:00
17°
1014.0 hPa 0.7 mm 12.3°
3
61%
19:00
16°
1013.6 hPa 1.4 mm 12.6°
2
62%
 05:43     20:53    Daglengte: 15:10 Vrijdag 13 Aug
01:00
12°
1014.1 hPa 0.4 mm 11.2°
2
61%
07:00
12°
1013.9 hPa 0.8 mm 10.8°
2
69%
  CAPE Lifted Index Hail Supercell Tornado SRH 3km CL BTM PRES CL TOP PRES Swiss DWD icon SMHI TS
 05:15     21:25    Daglengte: 16:10 Vandaag
11:00 85 J/kg 0.5 K 0 % 0 % 0 % 0 m²/s² 0 0 1.43 3
12:00 146 J/kg 0.1 K 0 % 0 % 0 % 0 m²/s² 0 0 0.97 3
13:00 210 J/kg -0.3 K 0 % 0 % 0 % 0 m²/s² 0 0 0.54 3
14:00 232 J/kg -0.6 K 0 % 0 % 0 % 0 m²/s² 0 0 0.24 2
15:00 258 J/kg -0.8 K 0 % 0 % 0 % 0 m²/s² 0 0 -0.32 80
16:00 154 J/kg -0.2 K 0 % 0 % 0 % 0 m²/s² 0 0 0.64 80
17:00 119 J/kg 0.1 K 0 % 0 % 0 % 0 m²/s² 0 0 1.06 80
18:00 74 J/kg 0.6 K 0 % 0 % 0 % 0 m²/s² 0 0 1.53 3
19:00 71 J/kg 0.6 K 0 % 0 % 0 % 0 m²/s² 0 0 1.47 3
20:00 26 J/kg 1.3 K 0 % 0 % 0 % 0 m²/s² 0 0 2.23 3
21:00 2 J/kg 1.7 K 0 % 0 % 0 % 0 m²/s² 0 0 2.69 3
22:00 0 J/kg 1.6 K 0 % 0 % 0 % 0 m²/s² 0 0 2.68 3
23:00 0 J/kg 2.2 K 0 % 0 % 0 % 0 m²/s² 0 0 3.37 3
 05:17     21:23    Daglengte: 16:06 Morgen
00:00 0 J/kg 2.5 K 0 % 0 % 0 % 0 m²/s² 0 0 3.64 2
01:00 0 J/kg 2.6 K 0 % 0 % 0 % 0 m²/s² 0 0 3.89 3
02:00 0 J/kg 2.7 K 0 % 0 % 0 % 0 m²/s² 0 0 4.08 3
03:00 0 J/kg 2.8 K 0 % 0 % 0 % 0 m²/s² 0 0 4.12 3
04:00 0 J/kg 2.7 K 0 % 0 % 0 % 0 m²/s² 0 0 4.08 3
05:00 0 J/kg 2.6 K 0 % 0 % 0 % 0 m²/s² 0 0 4.04 3
06:00 0 J/kg 2.3 K 0 % 0 % 0 % 0 m²/s² 0 0 3.68 3
07:00 0 J/kg 2.3 K 0 % 0 % 0 % 0 m²/s² 0 0 3.53 3
08:00 0 J/kg 1.9 K 0 % 0 % 0 % 0 m²/s² 0 0 3.28 3
09:00 0 J/kg 1.7 K 0 % 0 % 0 % 0 m²/s² 0 0 3.14 3
10:00 21 J/kg 1.7 K 0 % 0 % 0 % 0 m²/s² 0 0 3.08 61
11:00 70 J/kg 1.2 K 0 % 0 % 0 % 0 m²/s² 0 0 2.43 3
12:00 83 J/kg 1.3 K 0 % 0 % 0 % 0 m²/s² 0 0 2.59 3
13:00 31 J/kg 1.6 K 0 % 0 % 0 % 0 m²/s² 0 0 2.77 61
14:00 16 J/kg 2.0 K 0 % 0 % 0 % 0 m²/s² 0 0 3.11 61
15:00 11 J/kg 1.9 K 0 % 0 % 0 % 0 m²/s² 0 0 2.92 61
16:00 1 J/kg 1.9 K 0 % 0 % 0 % 0 m²/s² 0 0 2.86 3
17:00 4 J/kg 2.0 K 0 % 0 % 0 % 0 m²/s² 0 0 2.96 3
18:00 3 J/kg 1.8 K 0 % 0 % 0 % 0 m²/s² 0 0 2.64 3
19:00 0 J/kg 1.4 K 0 % 0 % 0 % 0 m²/s² 0 0 2.06 2
20:00 0 J/kg 1.2 K 0 % 0 % 0 % 0 m²/s² 0 0 1.89 3
21:00 0 J/kg 1.4 K 0 % 0 % 0 % 0 m²/s² 0 0 1.82 80
22:00 0 J/kg 1.2 K 0 % 0 % 0 % 0 m²/s² 0 0 1.95 80
23:00 0 J/kg 0.9 K 0 % 0 % 0 % 0 m²/s² 0 0 1.89 80
 05:18     21:21    Daglengte: 16:03 Zaterdag 31 Jul
00:00 0 J/kg 0.9 K 0 % 0 % 0 % 0 m²/s² 0 0 1.98 80
01:00 0 J/kg 0.8 K 0 % 0 % 0 % 0 m²/s² 0 0 1.67 80
02:00 0 J/kg 1.2 K 0 % 0 % 0 % 0 m²/s² 0 0 1.44 80
03:00 0 J/kg 1.5 K 0 % 0 % 0 % 0 m²/s² 0 0 1.62 80
04:00 0 J/kg 1.6 K 0 % 0 % 0 % 0 m²/s² 0 0 2.2 80
05:00 1 J/kg 1.6 K 0 % 0 % 0 % 0 m²/s² 0 0 2.47 80
06:00 12 J/kg 1.9 K 0 % 0 % 0 % 0 m²/s² 0 0 3.52 3
07:00 5 J/kg 2.1 K 0 % 0 % 0 % 0 m²/s² 0 0 4.56 3
08:00 3 J/kg 2.7 K 0 % 0 % 0 % 0 m²/s² 0 0 5.7 3
09:00 3 J/kg 3.7 K 0 % 0 % 0 % 0 m²/s² 0 0 7.24 3
10:00 0 J/kg 4.0 K 0 % 0 % 0 % 0 m²/s² 0 0 8.23 3
11:00 0 J/kg 4.4 K 0 % 0 % 0 % 0 m²/s² 0 0 7.91 3
12:00 5 J/kg 4.0 K 0 % 0 % 0 % 0 m²/s² 0 0 7.24 3
13:00 1 J/kg 4.0 K 0 % 0 % 0 % 0 m²/s² 0 0 7.33 3
14:00 1 J/kg 3.6 K 0 % 0 % 0 % 0 m²/s² 0 0 6.93 3
15:00 7 J/kg 2.5 K 0 % 0 % 0 % 0 m²/s² 0 0 5.74 3
16:00 2 J/kg 1.8 K 0 % 0 % 0 % 0 m²/s² 0 0 5.52 3
17:00 2 J/kg 1.5 K 0 % 0 % 0 % 0 m²/s² 0 0 6.39 3
18:00 0 J/kg 1.7 K 0 % 0 % 0 % 0 m²/s² 0 0 7.13 3
19:00 0 J/kg 2.0 K 0 % 0 % 0 % 0 m²/s² 0 0 7.43 3
20:00 0 J/kg 2.5 K 0 % 0 % 0 % 0 m²/s² 0 0 8.23 3
21:00 0 J/kg 3.3 K 0 % 0 % 0 % 0 m²/s² 0 0 9.18 3
22:00 0 J/kg 4.2 K 0 % 0 % 0 % 0 m²/s² 0 0 10.08 3
23:00 3 J/kg 5.3 K 0 % 0 % 0 % 0 m²/s² 0 0 10.88 3
 05:20     21:19    Daglengte: 15:59 Zondag 01 Aug
00:00 6 J/kg 6.1 K 0 % 0 % 0 % 0 m²/s² 0 0 11.23 3
01:00 26 J/kg 6.2 K 0 % 0 % 0 % 0 m²/s² 0 0 10.49 3
02:00 15 J/kg 6.7 K 0 % 0 % 0 % 0 m²/s² 0 0 10.36 3
03:00 3 J/kg 7.4 K 0 % 0 % 0 % 0 m²/s² 0 0 10.97 3
04:00 7 J/kg 7.3 K 0 % 0 % 0 % 0 m²/s² 0 0 11.05 3
05:00 8 J/kg 7.9 K 0 % 0 % 0 % 0 m²/s² 0 0 11.74 61
06:00 17 J/kg 8.3 K 0 % 0 % 0 % 0 m²/s² 0 0 11.87 61
07:00 30 J/kg 8.7 K 0 % 0 % 0 % 0 m²/s² 0 0 11.73 3
08:00 30 J/kg 9.3 K 0 % 0 % 0 % 0 m²/s² 0 0 11.43
09:00 19 J/kg 10.1 K 0 % 0 % 0 % 0 m²/s² 0 0 12.26
10:00 17 J/kg 10.5 K 0 % 0 % 0 % 0 m²/s² 0 0 13.47
Temp Baro Wind Neerslag
  EWN Forecast EWN WRFDA DWD ICON FMI HIRLAM MET Norway GFS
 05:15     21:25    Daglengte: 16:10 Vandaag
13:00 17.6° 1001.6 hPa 6.5 m/s 0.0 mm 18.4° 1001.1 hPa 4.5 m/s 0.3 mm 18.9° 1001.6 hPa 4.0 m/s -1.1 mm 16.9° 1002.5 hPa 7.1 m/s 0.0 mm 19.3° 1001.2 hPa 3.2 m/s
16:00 18.5° 1002.4 hPa 6.5 m/s 0.0 mm 17.5° 1002.3 hPa 4.3 m/s 3.0 mm 19.4° 1002.2 hPa 4.7 m/s 0.7 mm 16.2° 1003.8 hPa 7.4 m/s 0.0 mm 19.2° 1002.0 hPa 4.4 m/s
19:00 17.2° 1003.4 hPa 5.7 m/s 1.1 mm 18.2° 1002.8 hPa 5.3 m/s 5.5 mm 18.1° 1003.2 hPa 4.0 m/s 0.4 mm 15.5° 1005.2 hPa 6.6 m/s 0.0 mm 18.1° 1002.5 hPa 2.1 m/s
22:00 15.9° 1004.4 hPa 5.2 m/s 0.0 mm 15.7° 1004.0 hPa 5.2 m/s 5.5 mm 16.1° 1003.9 hPa 3.4 m/s 0.0 mm 15.4° 1005.8 hPa 6.7 m/s 0.0 mm 14.6° 1004.3 hPa 2.1 m/s
 05:17     21:23    Daglengte: 16:06 Morgen
01:00 14.8° 1004.4 hPa 5.1 m/s 0.0 mm 13.5° 1004.1 hPa 4.3 m/s 5.5 mm 14.6° 1004.1 hPa 2.7 m/s 0.0 mm 15.0° 1005.9 hPa 5.8 m/s 0.0 mm 12.7° 1004.9 hPa 2.4 m/s
04:00 14.1° 1004.2 hPa 4.7 m/s 0.0 mm 11.9° 1003.9 hPa 3.6 m/s 5.5 mm 14.1° 1004.1 hPa 1.8 m/s 0.4 mm 14.7° 1005.6 hPa 5.8 m/s 0.0 mm 12.5° 1004.7 hPa 1.6 m/s
07:00 14.0° 1004.3 hPa 4.0 m/s 0.0 mm 13.0° 1003.7 hPa 2.2 m/s 5.8 mm 14.2° 1004.1 hPa 0.6 m/s 0.5 mm 14.4° 1005.9 hPa 5.2 m/s 0.0 mm 13.1° 1004.8 hPa 0.3 m/s
10:00 14.9° 1004.6 hPa 3.1 m/s 0.0 mm 14.6° 1003.7 hPa 0.9 m/s 6.8 mm 14.7° 1004.6 hPa 0.8 m/s 0.5 mm 15.2° 1005.8 hPa 4.9 m/s 0.0 mm 14.8° 1004.9 hPa 1.7 m/s
13:00 15.9° 1004.7 hPa 2.8 m/s 0.0 mm 15.8° 1003.8 hPa 5.5 m/s 8.7 mm 15.6° 1004.6 hPa 1.4 m/s 0.2 mm 16.0° 1006.3 hPa 5.7 m/s 0.0 mm 15.3° 1004.9 hPa 2.5 m/s
16:00 16.9° 1004.4 hPa 2.5 m/s 0.0 mm 16.9° 1003.2 hPa 4.0 m/s 9.2 mm 16.9° 1004.4 hPa 0.3 m/s 1.1 mm 17.3° 1006.1 hPa 6.8 m/s 0.0 mm 16.5° 1004.5 hPa 2.1 m/s
19:00 17.9° 1004.2 hPa 3.0 m/s 0.0 mm 16.3° 1003.5 hPa 4.3 m/s 9.2 mm 18.3° 1004.0 hPa 0.8 m/s 0.0 mm 17.1° 1006.5 hPa 7.2 m/s 0.0 mm 16.6° 1004.5 hPa 1.7 m/s
22:00 16.4° 1004.8 hPa 4.8 m/s 1.8 mm 15.1° 1004.1 hPa 2.5 m/s 9.5 mm 16.5° 1004.4 hPa 0.8 m/s 0.5 mm 16.1° 1007.4 hPa 6.9 m/s 0.0 mm 14.6° 1005.0 hPa 0.6 m/s
 05:18     21:21    Daglengte: 16:03 Zaterdag 31 Jul
01:00 15.3° 1005.4 hPa 2.8 m/s 3.4 mm 14.4° 1004.1 hPa 0.8 m/s 11.5 mm 15.5° 1004.2 hPa 0.8 m/s 1.6 mm 15.5° 1007.2 hPa 6.8 m/s 0.0 mm 13.8° 1005.5 hPa 2.8 m/s
04:00 14.3° 1004.6 hPa 2.4 m/s 3.7 mm 13.9° 1003.4 hPa 2.4 m/s 12.8 mm 15.0° 1004.6 hPa 1.0 m/s 1.4 mm 12.8° 1005.9 hPa 2.0 m/s
07:00 13.8° 1005.5 hPa 3.9 m/s 5.0 mm 13.7° 1004.3 hPa 3.7 m/s 14.4 mm 14.3° 1005.5 hPa 3.2 m/s 0.3 mm 12.7° 1006.2 hPa 2.0 m/s
10:00 13.2° 1006.4 hPa 3.3 m/s 5.5 mm 13.0° 1005.0 hPa 3.1 m/s 15.4 mm 13.9° 1006.6 hPa 3.2 m/s 0.0 mm 13.9° 1006.7 hPa 2.6 m/s
13:00 14.3° 1006.6 hPa 2.4 m/s 0.0 mm 15.4° 1005.0 hPa 1.9 m/s 15.8 mm 14.2° 1007.0 hPa 2.4 m/s 0.0 mm 14.6° 1007.1 hPa 2.7 m/s
16:00 15.7° 1006.1 hPa 2.5 m/s 0.0 mm 16.5° 1004.7 hPa 5.5 m/s 15.8 mm 15.7° 1006.8 hPa 2.1 m/s 0.0 mm 16.1° 1007.2 hPa 3.7 m/s
19:00 15.6° 1005.9 hPa 4.0 m/s 0.0 mm 15.1° 1005.0 hPa 6.7 m/s 15.8 mm 15.7° 1007.0 hPa 2.3 m/s 0.0 mm 14.8° 1007.5 hPa 4.7 m/s
22:00 14.3° 1007.5 hPa 3.5 m/s 0.0 mm 13.8° 1006.6 hPa 5.2 m/s 15.8 mm 14.2° 1008.1 hPa 1.7 m/s 0.0 mm 13.0° 1009.1 hPa 4.1 m/s
 05:20     21:19    Daglengte: 15:59 Zondag 01 Aug
01:00 13.8° 1008.5 hPa 2.2 m/s 4.0 mm 13.1° 1007.7 hPa 4.3 m/s 16.2 mm 13.8° 1009.1 hPa 2.0 m/s 0.0 mm 12.6° 1009.9 hPa 3.5 m/s
04:00 13.0° 1009.2 hPa 2.9 m/s 0.0 mm 12.6° 1007.9 hPa 4.6 m/s 16.7 mm 13.1° 1009.5 hPa 2.4 m/s 0.0 mm 12.1° 1010.1 hPa 3.5 m/s
07:00 12.5° 1010.1 hPa 3.0 m/s 0.0 mm 11.9° 1009.1 hPa 3.9 m/s 16.7 mm 12.6° 1010.4 hPa 2.7 m/s 0.2 mm 11.9° 1011.2 hPa 2.7 m/s
10:00 13.6° 1010.1 hPa 3.1 m/s 16.8 mm 13.6° 1010.1 hPa 3.1 m/s 16.8 mm 12.6° 1012.3 hPa 2.0 m/s
13:00 13.8° 1011.0 hPa 2.7 m/s 16.8 mm 13.8° 1011.0 hPa 2.7 m/s 16.8 mm 15.2° 1012.8 hPa 2.5 m/s
16:00 15.4° 1013.5 hPa 3.3 m/s 8.7 mm 15.4° 1013.5 hPa 3.3 m/s 8.6 mm
19:00 14.6° 1014.2 hPa 2.8 m/s 8.7 mm 14.6° 1014.2 hPa 2.8 m/s 8.7 mm
22:00 12.2° 1015.4 hPa 1.4 m/s 8.7 mm 12.2° 1015.4 hPa 1.4 m/s 8.7 mm
 05:22     21:17    Daglengte: 15:55 Maandag 02 Aug
01:00 10.7° 1016.0 hPa 1.4 m/s 8.7 mm 10.7° 1016.0 hPa 1.4 m/s 8.7 mm
04:00 9.7° 1016.2 hPa 1.3 m/s 8.7 mm 9.7° 1016.2 hPa 1.3 m/s 8.7 mm
07:00 10.7° 1016.3 hPa 1.2 m/s 8.7 mm 10.7° 1016.3 hPa 1.2 m/s 8.7 mm
10:00 14.7° 1016.2 hPa 0.8 m/s 8.7 mm 14.7° 1016.2 hPa 0.8 m/s 8.7 mm
13:00 16.6° 1015.9 hPa 2.1 m/s 8.8 mm 16.6° 1015.9 hPa 2.1 m/s 8.8 mm
16:00 16.1° 1015.5 hPa 2.6 m/s 8.8 mm 16.1° 1015.5 hPa 2.6 m/s 8.8 mm
19:00 16.9° 1015.1 hPa 1.0 m/s 8.8 mm 16.9° 1015.1 hPa 1.0 m/s 8.8 mm
22:00 13.1° 1015.7 hPa 1.4 m/s 8.8 mm 13.1° 1015.7 hPa 1.4 m/s 8.8 mm
 05:24     21:15    Daglengte: 15:51 Dinsdag 03 Aug
01:00 11.0° 1016.1 hPa 2.6 m/s 8.8 mm 11.0° 1016.1 hPa 2.6 m/s 8.8 mm
04:00 9.8° 1015.6 hPa 2.7 m/s 8.8 mm 9.8° 1015.6 hPa 2.7 m/s 8.8 mm
07:00 10.6° 1015.8 hPa 2.6 m/s 8.8 mm 10.6° 1015.8 hPa 2.6 m/s 8.8 mm
10:00 15.4° 1015.1 hPa 4.3 m/s 8.8 mm 15.4° 1015.1 hPa 4.3 m/s 8.8 mm
13:00 18.6° 1014.0 hPa 3.7 m/s 8.8 mm 18.6° 1014.0 hPa 3.7 m/s 8.8 mm
16:00 19.5° 1013.3 hPa 3.9 m/s 8.8 mm 19.5° 1013.3 hPa 3.9 m/s 8.8 mm
19:00 18.4° 1013.4 hPa 3.4 m/s 8.9 mm 18.4° 1013.4 hPa 3.4 m/s 8.9 mm
22:00 13.9° 1014.1 hPa 3.0 m/s 8.9 mm 13.9° 1014.1 hPa 3.0 m/s 8.9 mm
 05:26     21:13    Daglengte: 15:47 Woensdag 04 Aug
01:00 12.2° 1014.1 hPa 2.9 m/s 8.9 mm 12.2° 1014.1 hPa 2.9 m/s 8.9 mm
04:00 12.5° 1013.4 hPa 2.1 m/s 9.1 mm 12.5° 1013.4 hPa 2.2 m/s 9.1 mm
07:00 12.9° 1013.4 hPa 1.7 m/s 9.6 mm 12.9° 1013.4 hPa 1.7 m/s 9.6 mm
10:00 15.4° 1013.4 hPa 3.5 m/s 9.7 mm 15.4° 1013.4 hPa 3.5 m/s 9.7 mm
13:00 19.0° 1012.9 hPa 3.8 m/s 9.8 mm 19.0° 1012.9 hPa 3.8 m/s 9.8 mm
16:00 19.1° 1012.7 hPa 4.4 m/s 10.4 mm 19.1° 1012.7 hPa 4.4 m/s 10.5 mm
19:00 18.8° 1012.3 hPa 3.9 m/s 10.7 mm 18.8° 1012.3 hPa 3.9 m/s 10.7 mm
22:00 14.6° 1013.5 hPa 3.1 m/s 10.8 mm 14.6° 1013.5 hPa 3.1 m/s 10.8 mm
 05:28     21:11    Daglengte: 15:43 Donderdag 05 Aug
01:00 12.9° 1013.7 hPa 2.9 m/s 10.8 mm 12.9° 1013.7 hPa 2.9 m/s 10.8 mm
04:00 12.3° 1013.1 hPa 2.7 m/s 10.8 mm 12.3° 1013.1 hPa 2.7 m/s 10.8 mm
07:00 13.2° 1013.1 hPa 1.9 m/s 10.8 mm 13.2° 1013.1 hPa 1.9 m/s 10.8 mm
10:00 16.6° 1012.7 hPa 1.3 m/s 10.8 mm 16.6° 1012.7 hPa 1.3 m/s 10.8 mm
13:00 18.4° 1011.9 hPa 0.4 m/s 11.3 mm 18.4° 1011.9 hPa 0.4 m/s 11.3 mm
19:00 17.1° 1010.4 hPa 1.1 m/s 13.0 mm 17.1° 1010.4 hPa 1.1 m/s 13.0 mm
 05:30     21:09    Daglengte: 15:39 Vrijdag 06 Aug
01:00 14.1° 1010.3 hPa 2.0 m/s 13.4 mm 14.1° 1010.3 hPa 2.0 m/s 13.4 mm
07:00 12.6° 1009.4 hPa 1.7 m/s 13.4 mm 12.6° 1009.4 hPa 1.7 m/s 13.4 mm
13:00 19.2° 1007.5 hPa 1.5 m/s 13.8 mm 19.2° 1007.5 hPa 1.5 m/s 13.8 mm
19:00 17.2° 1005.7 hPa 0.9 m/s 16.5 mm 17.2° 1005.7 hPa 0.9 m/s 16.5 mm
 05:32     21:06    Daglengte: 15:34 Zaterdag 07 Aug
01:00 13.6° 1004.6 hPa 0.6 m/s 16.6 mm 13.6° 1004.6 hPa 0.6 m/s 16.6 mm
07:00 13.5° 1002.1 hPa 1.8 m/s 17.5 mm 13.5° 1002.1 hPa 1.8 m/s 17.5 mm
13:00 15.9° 1001.5 hPa 3.0 m/s 18.2 mm 15.9° 1001.5 hPa 3.0 m/s 18.2 mm
19:00 13.9° 1000.7 hPa 0.8 m/s 21.6 mm 13.9° 1000.7 hPa 0.8 m/s 21.6 mm
 05:34     21:04    Daglengte: 15:30 Zondag 08 Aug
01:00 13.4° 1000.6 hPa 2.7 m/s 21.7 mm 13.4° 1000.6 hPa 2.7 m/s 21.7 mm
07:00 12.3° 1004.9 hPa 2.3 m/s 0.7 mm
13:00 16.1° 1005.9 hPa 3.0 m/s 0.2 mm
19:00 16.0° 1006.7 hPa 2.4 m/s 1.7 mm
 05:35     21:02    Daglengte: 15:27 Maandag 09 Aug
01:00 12.0° 1008.4 hPa 2.1 m/s 0.7 mm
07:00 11.9° 1009.1 hPa 2.7 m/s 0.5 mm
13:00 16.8° 1010.7 hPa 3.5 m/s 0.7 mm
19:00 16.5° 1011.0 hPa 2.9 m/s 1.5 mm
 05:37     21:00    Daglengte: 15:23 Dinsdag 10 Aug
01:00 12.2° 1012.2 hPa 2.8 m/s 0.6 mm
07:00 12.4° 1012.0 hPa 2.8 m/s 0.5 mm
13:00 17.1° 1012.5 hPa 3.9 m/s 0.5 mm
19:00 16.4° 1012.0 hPa 3.0 m/s 1.4 mm
 05:39     20:58    Daglengte: 15:19 Woensdag 11 Aug
01:00 13.0° 1012.5 hPa 2.4 m/s 0.8 mm
07:00 12.9° 1012.1 hPa 2.6 m/s 0.8 mm
13:00 16.9° 1013.0 hPa 3.3 m/s 0.8 mm
19:00 16.1° 1013.2 hPa 2.3 m/s 1.5 mm
 05:41     20:55    Daglengte: 15:14 Donderdag 12 Aug
01:00 12.3° 1014.4 hPa 2.1 m/s 0.5 mm
07:00 12.2° 1014.0 hPa 2.1 m/s 0.7 mm
13:00 16.9° 1014.0 hPa 2.6 m/s 0.7 mm
19:00 16.0° 1013.6 hPa 2.3 m/s 1.4 mm
 05:43     20:53    Daglengte: 15:10 Vrijdag 13 Aug
01:00 12.4° 1014.1 hPa 2.2 m/s 0.4 mm
07:00 12.1° 1013.9 hPa 2.3 m/s 0.8 mm
FMI Hirlam - 7.5 km EWN WRFDA - 12 km DWD ICON - 7 km GFS - 25 km Basiskaart






























































Updatetijd (Europe/Amsterdam) Resolutie Lengte Stap
FMI Hirlam 07:00, 13:00, 19:00, 01:00 7.5 km 49h 1h
EWN WRFDA 10:15, 16:15, 22:15, 04:15 12 km 73h 1h
DWD ICON 06:15, 12:15, 18:15, 00:15 7 km 75h 1h
GFS 08:15, 14:15, 20:15, 02:15 25 km 237h 3h
30+ mm
25-30 mm
20-25 mm
15-20 mm
10-15 mm
6-10 mm
4-6 mm
2-4 mm
1-2 mm
0.5-1 mm
0.2-0.5 mm
0.1-0.2 mm
30+ mm
25-30 mm
20-25 mm
15-20 mm
10-15 mm
6-10 mm
4-6 mm
2-4 mm
1-2 mm
0.5-1 mm
0.2-0.5 mm
0.1-0.2 mm
Sneeuwval
Natte sneeuw
Hagel
Vorst
30+ mm
25-30 mm
20-25 mm
15-20 mm
10-15 mm
6-10 mm
4-6 mm
2-4 mm
1-2 mm
0.5-1 mm
0.2-0.5 mm
0.1-0.2 mm
Sneeuwval
Natte sneeuw
Hagel
Vorst
Onweer
50 mm
40 mm
30 mm
26 mm
22 mm
18 mm
14 mm
10 mm
9 mm
8 mm
7 mm
6 mm
5 mm
4.5 mm
4 mm
3.5 mm
3 mm
2.5 mm
2 mm
1.5 mm
1 mm
0.8 mm
0.6 mm
0.4 mm
0.2 mm
0.05 mm
35°
30°
25°
20°
15°
10°
-5°
-10°
-15°
-20°
-25°
-30°
-35°
33> m/s
29 m/s
25 m/s
21 m/s
17 m/s
14 m/s
11 m/s
8 m/s
5 m/s
3 m/s
0 m/s
2600 J/kg
2400 J/kg
2200 J/kg
2000 J/kg
1800 J/kg
1600 J/kg
1400 J/kg
1200 J/kg
1000 J/kg
800 J/kg
600 J/kg
400 J/kg
200 J/kg
70 dBZ
65 dBZ
60 dBZ
55 dBZ
50 dBZ
45 dBZ
40 dBZ
35 dBZ
30 dBZ
25 dBZ
20 dBZ
15 dBZ
10 dBZ
5 dBZ
-1 K
-2 K
-3 K
-4 K
-5 K
-6 K
-7 K
-8 K
-9 K
950 m²/s²
900 m²/s²
850 m²/s²
800 m²/s²
750 m²/s²
700 m²/s²
650 m²/s²
600 m²/s²
550 m²/s²
500 m²/s²
450 m²/s²
400 m²/s²
350 m²/s²
300 m²/s²
250 m²/s²
200 m²/s²
150 m²/s²
100 m²/s²
46 m/s
44 m/s
42 m/s
40 m/s
38 m/s
36 m/s
34 m/s
32 m/s
30 m/s
28 m/s
26 m/s
24 m/s
22 m/s
20 m/s
16 m/s
12 m/s
8 m/s
4 m/s
30 m/s
28 m/s
26 m/s
24 m/s
22 m/s
20 m/s
18 m/s
16 m/s
14 m/s
12 m/s
10 m/s
8 m/s
6 m/s
4 m/s
2 m/s
3.0
2.8
2.6
2.4
2.2
2.0
1.8
1.6
1.4
1.2
1.0
0.8
0.6
0.4
0.2
15
14
13
12
11
10
9
8
7
6
5
4
3
2
1
90%
80%
70%
60%
50%
40%
30%
20%
10%
42
40
38
36
34
32
30
28
26
24
22
20
18
16
14
12
90+ cm
80-90 cm
70-80 cm
60-70 cm
50-60 cm
40-50 cm
30-40 cm
20-30 cm
10-20 cm
1-10 cm
Sneeuwval
Natte sneeuw
Regen
>120 mm
115 mm
110 mm
105 mm
100 mm
95 mm
90 mm
85 mm
80 mm
75 mm
70 mm
65 mm
60 mm
55 mm
50 mm
45 mm
45 mm
40 mm
35 mm
30 mm
25 mm
20 mm
15 mm
10 mm
5 mm
0.1 mm
960 hPa
880 hPa
800 hPa
720 hPa
640 hPa
560 hPa
584 gpdm
568 gpdm
552 gpdm
536 gpdm
520 gpdm
504 gpdm
488 gpdm
Extreem zwaar Noodweer Kans op onweer
15% 15% 5% 50% 15%

Dag




Kaart






35°
30°
25°
20°
15°
10°